TimeHST,TemperatureF,Dew PointF,Humidity,Sea Level PressureIn,VisibilityMPH,Wind Direction,Wind SpeedMPH,Gust SpeedMPH,PrecipitationIn,Events,Conditions,WindDirDegrees,DateUTC
12:54 AM,63.0,57.9,84,30.09,10.0,SSE,5.8,-,N/A,,Clear,150,2012-12-01 10:54:00
1:54 AM,62.1,57.9,86,30.06,10.0,SSE,5.8,-,N/A,,Clear,150,2012-12-01 11:54:00
2:54 AM,62.1,57.0,84,30.05,10.0,SSE,4.6,-,N/A,,Clear,160,2012-12-01 12:54:00
3:54 AM,61.0,57.0,87,30.05,10.0,South,4.6,-,N/A,,Clear,170,2012-12-01 13:54:00
4:54 AM,62.1,55.9,80,30.04,10.0,SE,6.9,-,N/A,,Clear,140,2012-12-01 14:54:00
5:54 AM,60.1,55.0,83,30.05,10.0,Calm,Calm,-,N/A,,Clear,0,2012-12-01 15:54:00
6:54 AM,61.0,55.9,83,30.07,10.0,SE,4.6,-,N/A,,Clear,140,2012-12-01 16:54:00
7:54 AM,64.9,59.0,81,30.07,10.0,Calm,Calm,-,N/A,,Clear,0,2012-12-01 17:54:00
8:54 AM,75.0,61.0,62,30.07,10.0,Calm,Calm,-,0.00,,Clear,0,2012-12-01 18:54:00
9:54 AM,78.1,61.0,56,30.07,10.0,North,3.5,-,N/A,,Clear,350,2012-12-01 19:54:00
10:54 AM,79.0,62.1,56,30.06,10.0,NNW,5.8,-,N/A,,Partly Cloudy,340,2012-12-01 20:54:00
11:54 AM,81.0,63.0,54,30.04,10.0,NW,4.6,-,N/A,,Partly Cloudy,320,2012-12-01 21:54:00
12:54 PM,81.0,62.1,52,30.02,10.0,North,5.8,-,N/A,,Scattered Clouds,350,2012-12-01 22:54:00
1:54 PM,82.0,64.0,54,30.00,10.0,NNE,8.1,-,N/A,,Partly Cloudy,20,2012-12-01 23:54:00
2:54 PM,81.0,64.0,56,29.99,10.0,Variable,6.9,-,N/A,,Partly Cloudy,0,2012-12-02 00:54:00
3:54 PM,80.1,64.9,60,30.00,10.0,Variable,5.8,-,N/A,,Partly Cloudy,0,2012-12-02 01:54:00
4:54 PM,79.0,64.9,62,30.00,10.0,NW,4.6,-,N/A,,Partly Cloudy,310,2012-12-02 02:54:00
5:54 PM,75.9,66.0,71,30.03,10.0,North,4.6,-,N/A,,Partly Cloudy,350,2012-12-02 03:54:00
6:54 PM,75.9,66.9,74,30.05,10.0,WSW,6.9,-,N/A,,Scattered Clouds,250,2012-12-02 04:54:00
7:54 PM,75.0,66.0,73,30.08,10.0,SW,3.5,-,N/A,,Scattered Clouds,220,2012-12-02 05:54:00
8:54 PM,73.0,66.0,79,30.09,10.0,Calm,Calm,-,N/A,,Partly Cloudy,0,2012-12-02 06:54:00
9:54 PM,71.1,66.0,84,30.09,10.0,Calm,Calm,-,N/A,,Clear,0,2012-12-02 07:54:00
10:54 PM,70.0,64.9,84,30.09,10.0,SSE,4.6,-,N/A,,Clear,150,2012-12-02 08:54:00
11:54 PM,69.1,64.0,84,30.08,10.0,South,3.5,-,N/A,,Clear,170,2012-12-02 09:54:00